DateTimeUTC,F1_A11,F1_S11,BsB_S11,BsG_S11,BsR_S11,BbsB_S11,BbsG_S11,BbsR_S11,BaB_A11,BaG_A11,BaR_A11,Tu_S11,T_S11,Uu_S11,U_S11,P_S11,T1_A11
2021-06-26T01:00:00Z,00000200,20000000,,,,,,,-000.21,-000.01,-000.45,17.9,24.6,05.3,03.5,0668.7,31.0
2021-06-26T01:01:00Z,00000200,20000000,,,,,,,0000.17,0000.12,0000.10,17.8,24.6,05.3,03.5,0668.7,31.0
2021-06-26T01:02:00Z,00000200,20000000,,,,,,,0000.22,0000.05,-000.00,17.8,24.6,05.3,03.5,0668.8,31.0
2021-06-26T01:03:00Z,00000200,60000000,,,,,,,0000.01,0000.03,0000.11,17.8,24.6,05.3,03.5,0668.8,31.0
2021-06-26T01:04:00Z,00000200,40000000,0000.82,0000.28,0000.48,-000.44,0000.14,0000.34,0000.18,0000.26,0000.06,17.8,24.4,05.3,03.5,0669.7,31.0
2021-06-26T01:05:00Z,00000200,00000000,0000.48,0000.10,0000.36,0000.02,-000.11,0000.26,0000.18,-000.09,0000.18,17.9,24.3,05.3,03.6,0669.8,31.0
2021-06-26T01:06:00Z,00000200,00000000,0000.76,0000.35,0000.13,0000.10,0000.10,0000.14,-000.17,0000.29,0000.20,17.9,24.4,05.4,03.6,0669.9,31.1
2021-06-26T01:07:00Z,00000200,00000000,0000.11,0000.34,0000.12,0000.17,0000.24,0000.36,0000.31,0000.17,-000.05,18.0,24.4,05.4,03.7,0669.9,31.1
2021-06-26T01:08:00Z,00000200,00000000,-000.26,0000.43,0000.22,0000.32,0000.13,0000.33,-000.40,-000.00,0000.12,18.1,24.4,05.4,03.6,0670.0,31.1
2021-06-26T01:09:00Z,00000200,00000000,0000.17,0000.39,0000.42,0000.66,0000.15,0000.07,0000.50,-000.18,-000.01,18.1,24.4,05.3,03.6,0669.8,31.1
2021-06-26T01:10:00Z,00000200,00000000,0000.34,0000.21,0000.22,0000.49,0000.09,0000.22,-000.17,0000.36,-000.10,18.2,24.5,05.3,03.6,0670.0,31.1
2021-06-26T01:11:00Z,00000200,00000000,0000.56,0000.12,0000.32,0000.09,0000.09,0000.10,-000.11,-000.12,0000.30,18.2,24.5,05.3,03.6,0670.2,31.1
2021-06-26T01:12:00Z,00000200,00000000,0000.28,0000.04,0000.44,-000.06,0000.25,0000.17,0000.22,-000.09,-000.26,18.2,24.5,05.3,03.6,0670.1,31.1
2021-06-26T01:13:00Z,00000200,00000000,0000.36,0000.05,0000.38,-000.04,0000.16,0000.08,-000.00,0000.04,-000.06,18.1,24.5,05.2,03.5,0670.0,31.1
2021-06-26T01:14:00Z,00000200,00000000,0000.32,0000.18,0000.47,0000.60,0000.03,0000.39,-000.15,-000.12,-000.02,18.1,24.4,05.2,03.5,0670.1,31.1
2021-06-26T01:15:00Z,00000200,00000000,0000.39,0000.20,-000.12,-000.01,0000.14,0000.07,0000.32,0000.39,0000.21,18.1,24.4,05.2,03.5,0670.2,31.1
2021-06-26T01:16:00Z,00000200,00000000,0000.80,0000.03,0000.48,-000.06,0000.09,0000.51,0000.22,-000.10,0000.11,18.0,24.4,05.3,03.6,0670.1,31.0
2021-06-26T01:17:00Z,00000200,00000000,0000.23,0000.11,0000.29,0000.26,0000.10,0000.11,-000.09,-000.05,-000.03,18.0,24.3,05.4,03.6,0670.2,31.0
2021-06-26T01:18:00Z,00000200,00000000,0000.80,0000.27,0000.21,0000.39,0000.35,0000.05,0000.29,0000.37,0000.09,18.0,24.3,05.5,03.7,0670.3,31.0
2021-06-26T01:19:00Z,00000200,00000000,0000.72,0000.15,0000.58,0000.29,0000.05,0000.20,0000.05,-000.19,0000.01,18.0,24.4,05.5,03.7,0670.3,31.0
2021-06-26T01:20:00Z,00000200,00000000,0000.94,0000.13,0000.10,0000.85,0000.14,0000.13,-000.08,0000.29,0000.40,18.1,24.4,05.4,03.7,0670.2,31.1
2021-06-26T01:21:00Z,00000200,00000000,-000.37,0000.35,0000.32,-000.07,0000.00,0000.13,0000.25,0000.14,-000.12,18.1,24.4,05.4,03.7,0670.3,31.1
2021-06-26T01:22:00Z,00000200,00000000,0000.54,0000.63,0000.29,-000.03,0000.20,0000.05,0000.14,-000.12,-000.04,18.2,24.4,05.3,03.6,0670.3,31.1
2021-06-26T01:23:00Z,00000200,00000000,0000.54,0000.24,0000.30,0000.10,0000.14,0000.33,-000.28,-000.03,-000.19,18.2,24.5,05.3,03.7,0670.3,31.1
2021-06-26T01:24:00Z,00000200,00000000,0000.36,0000.30,0000.21,0000.01,0000.11,0000.08,0000.02,-000.19,0000.13,18.2,24.5,05.4,03.7,0670.3,31.1
2021-06-26T01:25:00Z,00000200,00000000,0000.77,0000.20,0000.07,0000.60,0000.05,0000.41,-000.27,0000.17,-000.25,18.2,24.5,05.3,03.6,0670.3,31.1
2021-06-26T01:26:00Z,00000200,00000000,0000.37,0000.29,0000.05,-000.08,0000.14,0000.03,0000.24,0000.11,0000.34,18.2,24.5,05.3,03.6,0670.3,31.1
2021-06-26T01:27:00Z,00000200,00000000,0000.17,0000.40,0000.23,-000.22,0000.05,0000.14,-000.00,-000.10,-000.25,18.1,24.4,05.3,03.6,0670.1,31.1
2021-06-26T01:28:00Z,00000200,00000000,-000.05,0000.38,0000.36,0000.42,0000.14,0000.12,-000.14,0000.08,0000.19,18.1,24.4,05.1,03.5,0670.1,31.0
2021-06-26T01:29:00Z,00000200,00000000,0000.09,0000.32,0000.42,0000.26,0000.28,0000.12,0000.12,0000.15,-000.03,18.1,24.4,05.2,03.5,0670.1,31.0
2021-06-26T01:30:00Z,00000200,00000000,0000.97,0000.29,0000.38,-000.06,-000.18,0000.32,0000.03,0000.01,0000.12,18.0,24.4,05.2,03.5,0670.2,31.0
2021-06-26T01:31:00Z,00000200,00000000,0000.36,0000.19,0000.08,0000.43,0000.09,0000.07,0000.17,-000.27,0000.28,18.0,24.3,05.3,03.6,0670.2,31.0
2021-06-26T01:32:00Z,00000200,00000000,0000.31,0000.13,0000.12,0000.12,0000.11,0000.21,0000.31,0000.28,-000.16,17.9,24.3,05.4,03.6,0670.2,31.0
2021-06-26T01:33:00Z,00000200,00000000,0000.33,0000.26,0000.50,0000.49,0000.10,0000.30,0000.06,0000.39,-000.03,17.9,24.3,05.3,03.6,0670.3,31.0
2021-06-26T01:34:00Z,00000200,00000000,0000.07,-000.02,0000.55,0000.53,0000.22,0000.06,0000.31,-000.29,0000.35,17.9,24.3,05.5,03.7,0670.3,31.1
2021-06-26T01:35:00Z,00000200,00000000,-000.26,0000.05,0000.27,0000.11,0000.16,0000.11,0000.00,0000.61,-000.14,18.0,24.3,05.5,03.7,0670.3,31.0
2021-06-26T01:36:00Z,00000200,00000000,0000.30,0000.16,0000.11,0000.62,0000.24,-000.08,-000.18,0000.02,0000.28,18.0,24.3,05.4,03.7,0670.4,31.0
2021-06-26T01:37:00Z,00000200,00000000,0000.54,0000.07,0000.39,0000.62,0000.11,0000.18,0000.20,0000.19,-000.06,18.1,24.4,05.4,03.7,0670.4,31.1
2021-06-26T01:38:00Z,00000200,00000000,0000.99,0000.25,0000.34,-000.01,0000.23,0000.31,-000.04,-000.20,0000.43,18.2,24.4,05.4,03.7,0670.4,31.1
2021-06-26T01:39:00Z,00000200,00000000,-000.17,0000.13,0000.20,0000.33,0000.10,0000.05,0000.15,-000.12,-000.50,18.2,24.4,05.4,03.7,0670.3,31.1
2021-06-26T01:40:00Z,00000200,00000000,0000.24,0000.10,0000.49,0000.16,-000.10,0000.09,-000.08,0000.35,0000.21,18.2,24.5,05.3,03.6,0670.4,31.1
2021-06-26T01:41:00Z,00000200,00000000,0000.27,0000.13,0000.42,-000.03,0000.17,0000.09,0000.24,-000.06,-000.00,18.2,24.5,05.4,03.7,0670.4,31.1
2021-06-26T01:42:00Z,00000200,00000000,0000.60,0000.35,0000.13,0000.99,0000.38,0000.16,-000.10,-000.03,0000.20,18.2,24.4,05.3,03.6,0670.4,31.1
2021-06-26T01:43:00Z,00000200,00000000,0000.91,0000.27,0000.25,0000.48,0000.28,0000.20,-000.13,-000.41,-000.36,18.1,24.4,05.3,03.6,0670.4,31.1
2021-06-26T01:44:00Z,00000200,00000000,0000.79,0000.46,0000.09,0000.04,0000.27,0000.10,-000.27,0000.26,0000.03,18.1,24.4,05.3,03.6,0670.3,31.1
2021-06-26T01:45:00Z,00000200,00000000,0000.90,-000.06,0000.33,0000.35,0000.03,0000.26,0000.31,0000.17,0000.11,18.1,24.4,05.4,03.7,0670.3,31.0
2021-06-26T01:46:00Z,00000200,00000000,0000.46,0000.23,0000.23,0000.30,0000.12,0000.27,-000.02,-000.24,-000.23,18.0,24.3,05.4,03.6,0670.4,31.0
2021-06-26T01:47:00Z,00000200,00000000,0000.23,0000.20,0000.62,0000.25,0000.27,0000.24,0000.21,0000.17,0000.40,18.0,24.3,05.4,03.7,0670.4,31.0
2021-06-26T01:48:00Z,00000200,00000000,0000.49,0000.33,0000.33,0000.54,0000.16,0000.41,0000.05,0000.19,0000.14,18.0,24.3,05.3,03.6,0670.3,31.0
2021-06-26T01:49:00Z,00000200,00000000,0000.88,0000.14,0000.21,0000.00,0000.26,-000.11,0000.26,-000.01,0000.07,18.0,24.3,05.4,03.7,0670.3,31.0
2021-06-26T01:50:00Z,00000200,00000000,0000.33,0000.26,0000.28,0000.29,0000.02,0000.16,-000.17,-000.00,-000.02,18.1,24.3,05.6,03.8,0670.4,31.1
2021-06-26T01:51:00Z,00000200,00000000,-000.06,0000.27,0000.14,0000.02,0000.32,0000.03,0000.26,0000.43,0000.12,18.1,24.4,05.5,03.8,0670.4,31.1
2021-06-26T01:52:00Z,00000200,00000000,0000.41,-000.16,0000.55,0000.50,0000.15,0000.42,0000.03,-000.11,0000.10,18.2,24.4,05.4,03.7,0670.3,31.1
2021-06-26T01:53:00Z,00000200,00000000,0000.24,0000.45,0000.08,0000.05,0000.22,0000.11,-000.26,-000.23,-000.49,18.3,24.4,05.2,03.6,0670.2,31.1
2021-06-26T01:54:00Z,00000200,00000000,0000.46,0000.13,0000.15,0000.77,0000.02,0000.10,0000.13,-000.13,0000.33,18.3,24.5,05.2,03.6,0670.3,31.1
2021-06-26T01:55:00Z,00000200,00000000,0000.11,0000.22,0000.39,0000.02,0000.09,0000.19,0000.19,0000.58,-000.02,18.3,24.5,05.2,03.6,0670.3,31.1
2021-06-26T01:56:00Z,00000200,00000000,0000.63,0000.46,0000.22,0001.15,0000.14,0000.04,-000.13,-000.06,-000.23,18.3,24.5,05.2,03.6,0670.3,31.1
2021-06-26T01:57:00Z,00000200,40000000,,,,,,,0000.06,-000.36,0000.01,18.4,24.6,05.1,03.5,0670.3,31.1
2021-06-26T01:58:00Z,00000200,60000000,,,,,,,-000.29,0000.12,0000.09,18.1,24.6,05.2,03.5,0669.2,31.1
2021-06-26T01:59:00Z,00000200,20000000,,,,,,,0000.01,0000.18,0000.02,18.0,24.7,05.0,03.4,0669.2,31.1
